Regional Weather Roundup
Issued by NWS

Home | Current Version | Previous Version | Graphics & Text | Print | Product List | Glossary On
Versions: 1 2 3 4 5 6 7 8 9 10 11 12 13 14 15 16 17 18 19 20 21 22 23 24 25 26 27 28 29 30 31 32 33 34 35 36 37 38 39 40 41 42 43 44 45 46 47 48 49 50
000
ASUS43 KIND 061959
RWRIN

WEATHER ROUNDUP FOR INDIANA
NATIONAL WEATHER SERVICE INDIANAPOLIS IN
300 PM EST SAT FEB 06 2016

NOTE: "FAIR" INDICATES FEW OR NO CLOUDS BELOW 12,000 FEET WITH NO
SIGNIFICANT WEATHER AND/OR OBSTRUCTIONS TO VISIBILITY.

* - STATION DOES NOT REPORT WEATHER SUCH AS PRECIPITATION OR FOG.

+ - STATION NOT QUALITY CONTROLLED BY THE NATIONAL WEATHER SERVICE.
    USE DATA WITH CAUTION...ESPECIALLY DEWPOINT AND RELATIVE
    HUMIDITY OBSERVATIONS.

INZ001>003-010>013-019-020-062100-
NORTHWEST INDIANA

CITY           SKY/WX    TMP DP  RH WIND       PRES   REMARKS
GARY /AIRPORT/ MOSUNNY   41  25  52 SW9       30.19F
RENSSELAER +   SUNNY     41  27  56 SW14      30.20F

$$

LMZ046-743>745-062100-
SOUTHERN LAKE MICHIGAN

STATION/POSITION TIME  TEMP    WIND        PRES    WAVE
                       AIR SEA DIR/SP/G            HT
                 (UTC) (F)     (DEG/KT/KT) (MB)    (FT)
BURNS HARBOR     1900   38     230/ 13/ 18 1023.0F
MICHIGAN CITY    1900   36     200/ 14/ 16   N/A

$$

INZ004-005-014>016-021>024-062100-
NORTH CENTRAL INDIANA

CITY           SKY/WX    TMP DP  RH WIND       PRES   REMARKS
ELKHART        SUNNY     39  21  48 MISG      30.19F
GOSHEN         SUNNY     38  23  55 SW17      30.19F
PERU/GRISSOM   SUNNY     41  25  52 W10       30.21F
SOUTH BEND     MOSUNNY   37  25  61 SW20      30.19F

$$

INZ006>009-017-018-025>027-062100-
NORTHEAST INDIANA

CITY           SKY/WX    TMP DP  RH WIND       PRES   REMARKS
FORT WAYNE     MOSUNNY   38  22  52 SW13      30.22F

$$

INZ028-029-035-036-043>045-051>053-062100-
WEST CENTRAL INDIANA

CITY           SKY/WX    TMP DP  RH WIND       PRES   REMARKS
GREENCASTLE +  SUNNY     45  18  33 SW6       30.24F
LAFAYETTE      SUNNY     41  25  53 SW8       30.23F
TERRE HAUTE    SUNNY     46  27  47 SW9       30.24F

$$

INZ030>032-037>040-046>048-054>057-064-065-062100-
CENTRAL INDIANA

CITY           SKY/WX    TMP DP  RH WIND       PRES   REMARKS
ANDERSON       SUNNY     39  21  48 SW9       30.25F
GREENWOOD *+   SUNNY     45  27  49 W9        30.24F
INDIANAPOLIS   MOSUNNY   44  23  43 SW10      30.23F
-EAGLE CREEK   SUNNY     42  24  49 SW5       30.23F
KOKOMO *+        N/A     41  27  56 SW9       30.22F
MT COMFORT *+  SUNNY     43  25  49 W9        30.24F
SHELBYVILLE    SUNNY     44  24  45 W9G17     30.24F

$$

INZ033-034-041-042-049-050-058-059-062100-
EAST CENTRAL INDIANA

CITY           SKY/WX    TMP DP  RH WIND       PRES   REMARKS
MUNCIE         SUNNY     41  21  44 W10       30.23F

$$

INZ060-061-067>069-081>083-085>088-062100-
SOUTHWEST INDIANA

CITY           SKY/WX    TMP DP  RH WIND       PRES   REMARKS
EVANSVILLE     SUNNY     54  25  32 SW6       30.27F
HUNTINGBURG *+ SUNNY     48  28  46 S6        30.27F

$$

INZ062-063-066-070>080-084-089>092-062100-
SOUTH CENTRAL AND SOUTHEAST INDIANA

CITY           SKY/WX    TMP DP  RH WIND       PRES   REMARKS
BLOOMINGTON    SUNNY     48  24  39 W5        30.24F
MADISON *+     SUNNY     46  23  39 W6        30.28F
SEYMOUR +      SUNNY     50  27  40 SW8       30.26F

$$




USA.gov is the U.S. government's official web portal to all federal, state and local government web resources and services.